Location: Riverside Cemetery
(38.3047°N, 99.7773°W)
Time: 06:48:32
(UTC+00:00)

Cosmos 2084 Rocket - Pass Details

Date: 19 September 2020
Orbit: 546 x 635 km, 62.8° (Epoch: 21 October)

Event Time Altitude Azimuth Distance (km) Brightness Sun altitude
Rises 01:36:27 0° 328° (NNW) 2,864 7.7 -11.5°
Reaches altitude 10° 01:38:43 10° 332° (NNW) 1,971 6.7 -12.0°
Maximum altitude 01:43:10 67° 54° (NE) 677 3.6 -12.8°
Enters shadow 01:46:47 16° 136° (SE) 1,649 5.2 -13.5°
